Location: ??
(35.4627°N, 139.3695°E)
Time: 04:41:11
(UTC+00:00)

FALCON 9 DEB - Pass Details

Date: 25 November 2020
Orbit: 373 x 391 km, 53.0° (Epoch: 20 January)

Event Time Altitude Azimuth Distance (km) Brightness Sun altitude
Exits shadow 20:22:30 21° 254° (WSW) 937 4.3 -13.4°
Maximum altitude 20:24:18 46° 319° (NW) 535 3.2 -13.0°
Drops below altitude 10° 20:27:26 10° 35° (NE) 1,440 6.0 -12.4°
Sets 20:29:34 0° 41° (NE) 2,303 7.1 -12.0°
